FM-6

Last updated on Fri Oct 11 2024 00:02:40 GMT+0000 (Coordinated Universal Time)

1 39360U 13058A 24284.19432094 -.00000012 00000+0 00000+0 0 9992 2 39360 0.0194 247.1521 0000089 162.2828 283.6491 1.00274256 39894
UTC large
Height (km)
Speed (km/s)
/
Latitude / Longitude
Inclination (degrees)
Orbital Period (minutes)
Azimuth
Elevation
Range (km)
Doppler Factor

Next 0 passes for location: London (51.5072 / 0.1276)

Sorry there are no passes over London.